Location: ???????
(55.4362°N, 38.1183°E)
Time: 16:57:19
(UTC+00:00)

Cosmos 2058 Rocket - Pass Details

Date: 17 June 2021
Orbit: 609 x 640 km, 82.5° (Epoch: 29 July)

Event Time Altitude Azimuth Distance (km) Brightness Sun altitude
Rises 20:19:30 0° 348° (NNW) 2,943 8.9 -9.8°
Reaches altitude 10° 20:21:46 10° 351° (N) 2,026 7.3 -9.9°
Maximum altitude 20:26:16 73° 76° (ENE) 661 3.2 -10.0°
Enters shadow 20:30:03 14° 161° (SSE) 1,745 4.7 -10.2°
